Location: Ahausen
(50.4985°N, 8.2722°E)
Time: 09:50:11
(UTC+00:00)

Cosmos 1048 Rocket - Pass Details

Date: 18 September 2020
Orbit: 742 x 792 km, 74.0° (Epoch: 25 October)

Event Time Altitude Azimuth Distance (km) Brightness Sun altitude
Rises 19:23:13 0° 334° (NNW) 3,255 8.1 -17.7°
Reaches altitude 10° 19:25:36 10° 334° (NNW) 2,332 7.2 -18.1°
Maximum altitude 19:30:54 80° 249° (WSW) 801 4.1 -18.8°
Enters shadow 19:34:11 24° 165° (SSE) 1,578 5.2 -19.3°
